Regional Weather Roundup
Issued by NWS Binghamton, NY

Home | Current Version | Previous Version | Text Only | Print | Product List | Glossary On
Versions: 1 2 3 4 5 6 7 8 9 10 11 12 13 14 15 16 17 18 19 20 21 22 23 24 25 26 27 28 29 30 31 32 33 34 35 36 37 38 39 40 41 42 43 44 45 46 47 48 49 50
000
ASUS41 KBGM 300510
RWRBGM

REGIONAL WEATHER ROUNDUP
NATIONAL WEATHER SERVICE BINGHAMTON NY
100 AM EDT SAT APR 30 2016

Note: "fair" indicates few or no clouds below 12,000 feet with no
significant weather and/or obstructions to visibility.

* = Station(s) that does not report precipitation, such as rain,
snow, etc, also no thunder or fog.

NYZ009-015>018-022>025-036-037-044>046-055>057-062-300600
...Central New York...

CITY           SKY/WX    TMP DP  RH WIND       PRES   REMARKS
Binghamton     CLOUDY    39  37  92 CALM      30.13S
Cortland       CLOUDY    43  43 100 CALM      30.14S
Dansville      CLOUDY    43  41  93 SE3       30.16R
Elmira         CLOUDY    43  41  93 N3        30.15R FOG
Ithaca         CLOUDY    43  39  87 S3        30.15S
Hamilton       CLOUDY    46  39  76 CALM      30.14S
Hornell        CLOUDY    39  39 100 CALM      30.19R FOG
Monticello     CLOUDY    37  37 100 CALM      30.17R
Norwich        CLOUDY    43  39  87 S3        30.16R
Penn Yan       CLOUDY    45  42  89 CALM      30.14S
Rome           CLOUDY    48  43  82 CALM      30.14F
Sidney         CLOUDY    43  43 100 CALM      30.16S
Syracuse       CLOUDY    48  43  82 CALM      30.14F
$$

PAZ038>040-043-044-047-048-072-300600
...Northeast Pennsylvania...

CITY           SKY/WX    TMP DP  RH WIND       PRES   REMARKS
Hazleton       CLOUDY    39  36  87 E5        30.16S
Scranton       CLOUDY    43  37  79 CALM      30.15R
$$
&&
KEY
WCI = Wind Chill Index
VSB = Visibility
HX  = Heat Index
$$



USA.gov is the U.S. government's official web portal to all federal, state and local government web resources and services.